Вернуться в каталог

STARLINK-2648

АктивенСвязьVLEO
NORAD 48679·PAYLOAD·🇺🇸 United States

Запущен May 26, 2021 с Cape Canaveral Space Force Station

Loading…

Ближайшие Пролёты (ближайшие 24 часа)

TLE

СвежийSource: CelesTrak SupGP

Эпоха: Sep 14, 2026, 12:42 UTC

1 48679C 21044AT  26257.52965278  .00022945  00000+0  73839-3 0  2572
2 48679  53.1586 316.6121 0001166  73.3976  59.1994 15.31667060    16

Отслеживайте STARLINK-2648 в реальном времени с AllMySat

Download on the App Store